This demonstration page uses our WeatherBlox Daily Observations layout. Learn more.

Left ArrowRight Arrow

34.16533, -84.80231

Hourly Observations for February 23, 2015

Temp ( °F °C ) Dew Point ( °F °C ) Humidity (%) Winds ( mph kmh ) Pressure ( in mb ) Visibility ( mi km ) Precip ( " mm )
12:53 am 00:53 Cloudy 40 4.4 37 2.8 89 89 VRB 6 9 30.24 1024 9 14 0.00 0.00
1:53 am 01:53 Cloudy 39 3.9 36 2.2 89 89 N 6 9 30.23 1024 8 13 0.00 0.00
2:53 am 02:53 Cloudy with Light Rain 38 3.3 35 1.7 89 89 Calm 30.23 1024 8 13 0.00 0.03
3:53 am 03:53 Cloudy with Light Rain 37 2.8 34 1.1 89 89 VRB 5 7 30.25 1024 4 6 0.06 1.52
4:15 am 04:15 Cloudy with Light Rain 36 2.2 33 0.6 89 89 VRB 6 9 30.30 1026 5 8 0.03 0.76
4:48 am 04:48 Cloudy with Light Rain 36 2 34 1 93 93 NNW 8 13 30.30 1026 5 8 0.07 1.78
4:53 am 04:53 Cloudy with Light Rain 36 2.2 33 0.6 89 89 NNW 7 11 30.25 1025 5 8 0.08 2.03
5:53 am 05:53 Cloudy with Light Rain 36 2.2 33 0.6 89 89 VRB 7 11 30.26 1025 4 6 0.11 2.79
6:10 am 06:10 Cloudy with Light Rain 36 2.2 33 0.6 89 89 N 8 13 30.30 1026 5 8 0.01 0.25
6:53 am 06:53 Cloudy 35 1.7 32 0 89 89 N 8 13 30.25 1024 8 13 0.01 0.25
7:53 am 07:53 Cloudy with Mist and Fog 35 1.7 32 0 89 89 VRB 6 9 30.25 1024 6 10 0.00 0.00
8:31 am 08:31 Cloudy with Mist and Fog 35 1.7 31 -0.6 85 85 VRB 7 11 30.33 1027 6 10 0.00 0.00
8:53 am 08:53 Cloudy 36 2.2 32 0 86 86 VRB 6 9 30.30 1026 7 11 0.00 0.00
9:53 am 09:53 Cloudy 36 2.2 31 -0.6 82 82 N 12 19 30.30 1026 7 11 0.00 0.00
10:53 am 10:53 Cloudy 37 2.8 30 -1.1 76 76 N 12 19 30.30 1026 7 11 0.00 0.00
11:20 am 11:20 Cloudy 37 2.8 31 -0.6 79 79 VRB 6 9 30.33 1027 7 11 0.00 0.00
11:53 am 11:53 Cloudy 39 3.9 31 -0.6 73 73 NW 8 13 30.32 1027 7 11 0.00 0.00
12:53 pm 12:53 Cloudy 39 3.9 30 -1.1 70 70 N 12 19 30.29 1026 7 11 0.00 0.00
1:32 pm 13:32 Mostly Sunny 42 5.6 31 -0.6 65 65 NNW 13 20 30.30 1026 8 13 0.00 0.00
1:53 pm 13:53 Sunny 43 6.1 31 -0.6 63 63 N 12 19 30.28 1025 9 14 0.00 0.00
2:53 pm 14:53 Sunny 45 7.2 30 -1.1 56 56 VRB 7 11 30.29 1026 10 16 0.00 0.00
3:53 pm 15:53 Sunny 44 6.7 30 -1.1 58 58 N 14 22 30.28 1025 10 16 0.00 0.00
4:53 pm 16:53 Sunny 43 6.1 29 -1.7 58 58 NNW 9 15 30.29 1026 10 16 0.00 0.00
5:53 pm 17:53 Sunny 41 5 26 -3.3 55 55 N 8 13 30.29 1026 10 16 0.00 0.00
6:53 pm 18:53 Partly Cloudy 39 3.9 26 -3.3 60 60 N 9 15 30.29 1026 10 16 0.00 0.00
7:53 pm 19:53 Partly Cloudy 37 2.8 25 -3.9 62 62 N 8 13 30.26 1025 10 16 0.00 0.03
8:53 pm 20:53 Clear 35 1.7 23 -5 61 61 VRB 5 7 30.25 1025 10 16 0.00 0.00
9:53 pm 21:53 Cloudy 34 1.1 23 -5 64 64 N 7 11 30.24 1024 10 16 0.00 0.00
10:53 pm 22:53 Partly Cloudy 33 0.6 23 -5 66 66 Calm 30.23 1024 10 16 0.00 0.00
11:53 pm 23:53 Cloudy 33 0.6 21 -6.1 61 61 VRB 5 7 30.21 1023 10 16 0.00 0.00

Powered by AerisWeather